EW9729 Weather Reports


time (UTC)temp
C
wind
direction
speed
KPH
gust
KPH
rain 1hr
cm
rain 24hr
cm
rain mn
cm
humidity
%
barometer
mb
20260505152537 23 203 6.4 11.3 0.00 0.00 0.00 80 1006.5
20260505151516 23 203 3.2 4.8 0.00 0.00 0.00 81 1006.7
20260505150516 23 180 6.4 11.3 0.00 0.00 0.00 81 1006.6
20260505140517 22 180 3.2 4.8 0.00 0.00 0.00 83 1006.4
20260505124516 22 203 3.2 4.8 0.00 0.00 0.00 84 1006.0
20260505123516 22 203 6.4 14.5 0.00 0.00 0.00 84 1005.9
20260505122516 22 180 3.2 6.4 0.00 0.00 0.00 84 1005.8
20260505121516 21 180 4.8 11.3 0.00 0.00 0.00 84 1005.9
20260505120517 21 270 4.8 8.0 0.00 0.00 0.00 84 1005.7
20260505115516 21 203 3.2 6.4 0.00 0.00 0.00 85 1005.7
20260505114536 21 180 6.4 12.9 0.00 0.00 0.00 85 1005.6
20260505113536 21 158 3.2 4.8 0.00 0.00 0.00 84 1005.5
20260505112516 21 203 4.8 9.7 0.00 0.00 0.00 85 1005.6
20260505111516 21 203 4.8 8.0 0.00 0.00 0.00 85 1005.8
20260505110516 21 180 1.6 4.8 0.00 0.00 0.00 85 1005.6
20260505101536 21 203 4.8 6.4 0.00 0.00 0.00 84 1005.7
20260505100516 21 203 3.2 4.8 0.00 0.00 0.00 84 1005.8
20260505095516 21 203 3.2 6.4 0.00 0.00 0.00 84 1006.1
20260505094516 21 180 4.8 6.4 0.00 0.00 0.00 84 1006.1
20260505093516 21 248 3.2 8.0 0.00 0.00 0.00 84 1006.2
20260505092516 21 203 4.8 11.3 0.00 0.00 0.00 84 1006.2
20260505091516 21 203 3.2 4.8 0.00 0.00 0.00 84 1006.2
20260505090516 21 225 4.8 12.9 0.00 0.00 0.00 84 1006.2
20260505085516 21 180 4.8 6.4 0.00 0.00 0.00 84 1006.0
20260505084516 21 180 4.8 9.7 0.00 0.00 0.00 84 1006.1
20260505083516 21 180 4.8 9.7 0.00 0.00 0.00 84 1006.1
20260505082516 21 180 8.0 16.1 0.00 0.00 0.00 84 1006.2
20260505081536 21 203 3.2 6.4 0.00 0.00 0.00 84 1006.1
20260505080516 21 180 3.2 6.4 0.00 0.00 0.00 84 1006.3
20260505075516 21 203 4.8 8.0 0.00 0.00 0.00 84 1006.5
20260505074516 21 158 4.8 6.4 0.00 0.00 0.00 84 1006.6
20260505073516 21 203 8.0 11.3 0.00 0.00 0.00 84 1006.7
20260505072516 21 158 6.4 9.7 0.00 0.00 0.00 83 1006.9
20260505071516 21 0 3.2 4.8 0.00 0.00 0.00 83 1006.9
20260505070516 21 0 6.4 12.9 0.00 0.00 0.00 82 1007.1
20260505065536 21 0 4.8 9.7 0.00 0.00 0.00 82 1007.1
20260505064516 21 0 4.8 9.7 0.00 0.00 0.00 82 1007.2
20260505063518 21 225 4.8 8.0 0.00 0.00 0.00 82 1007.2
20260505062558 22 0 3.2 4.8 0.00 0.00 0.00 81 1007.2
20260505061518 22 203 4.8 8.0 0.00 0.00 0.00 81 1007.4
20260505060518 22 90 3.2 4.8 0.00 0.00 0.00 80 1007.5
20260505055518 22 68 4.8 8.0 0.00 0.00 0.00 80 1007.4
20260505054518 22 203 3.2 6.4 0.00 0.00 0.00 79 1007.5
20260505053518 22 90 3.2 4.8 0.00 0.00 0.00 79 1007.6
20260505052538 22 135 4.8 6.4 0.00 0.00 0.00 79 1007.6
20260505051516 22 135 6.4 17.7 0.00 0.00 0.00 78 1007.8
20260505050518 22 203 4.8 6.4 0.00 0.00 0.00 78 1007.7
20260505041516 22 158 3.2 4.8 0.00 0.00 0.00 75 1008.1
20260505040536 22 158 3.2 6.4 0.00 0.00 0.00 76 1008.1
20260505035536 22 225 1.6 3.2 0.00 0.00 0.00 75 1007.9
20260505034516 22 90 1.6 3.2 0.00 0.00 0.00 74 1007.9
20260505033518 23 68 3.2 8.0 0.00 0.00 0.00 73 1007.9
20260505032518 22 180 3.2 4.8 0.00 0.00 0.00 73 1007.9
20260505031518 22 135 3.2 4.8 0.00 0.00 0.00 73 1008.0
20260505030518 23 135 1.6 3.2 0.00 0.00 0.00 73 1007.9
20260505025516 23 135 1.6 3.2 0.00 0.00 0.00 73 1007.9
20260505024518 23 180 1.6 3.2 0.00 0.00 0.00 72 1007.9
20260505023518 23 248 1.6 3.2 0.00 0.00 0.00 72 1007.6
20260505022518 23 0 1.6 6.4 0.00 0.00 0.00 71 1007.8
20260505021517 23 0.0 1.6 0.00 0.00 0.00 71 1007.7
20260505020538 23 270 3.2 6.4 0.00 0.00 0.00 70 1007.4
20260505015538 23 158 3.2 11.3 0.00 0.00 0.00 70 1007.5
20260505014518 23 68 1.6 3.2 0.00 0.00 0.00 69 1007.7
20260505013518 23 135 3.2 4.8 0.00 0.00 0.00 69 1007.5
20260505012517 23 158 1.6 3.2 0.00 0.00 0.00 68 1007.4
20260505011518 23 113 3.2 12.9 0.00 0.00 0.00 68 1007.5
20260505010518 24 0.0 1.6 0.00 0.00 0.00 67 1007.5
20260505005517 24 158 3.2 6.4 0.00 0.00 0.00 66 1007.6
20260505004517 24 135 3.2 4.8 0.00 0.00 0.00 66 1007.6
20260505003518 25 90 4.8 9.7 0.00 0.00 0.00 65 1007.4
20260505002518 25 180 6.4 12.9 0.00 0.00 0.00 64 1007.6
20260505001517 25 135 3.2 6.4 0.00 0.00 0.00 64 1007.7
20260505000558 25 248 3.2 6.4 0.00 0.00 0.00 63 1007.7
20260504235538 25 158 3.2 4.8 0.00 0.00 0.00 62 1007.8
20260504234517 25 180 4.8 9.7 0.00 0.00 0.00 62 1007.8
20260504233517 25 203 4.8 8.0 0.00 0.00 0.00 62 1007.9
20260504232517 26 203 4.8 11.3 0.00 0.00 0.00 61 1007.8
20260504231517 26 203 4.8 12.9 0.00 0.00 0.00 59 1008.1
20260504230517 26 203 3.2 6.4 0.00 0.00 0.00 59 1008.2
20260504225517 26 158 4.8 11.3 0.00 0.00 0.00 59 1008.4
20260504224517 26 158 6.4 11.3 0.00 0.00 0.00 58 1008.3
20260504223518 26 158 6.4 14.5 0.00 0.00 0.00 59 1008.2
20260504222518 26 135 8.0 19.3 0.00 0.00 0.00 58 1008.4
20260504221517 26 225 4.8 9.7 0.00 0.00 0.00 59 1008.4
20260504220537 26 135 4.8 8.0 0.00 0.00 0.00 58 1008.6
20260504215518 27 135 4.8 9.7 0.00 0.00 0.00 58 1008.7
20260504214517 26 248 1.6 3.2 0.00 0.00 0.00 58 1008.8
20260504213537 26 203 4.8 9.7 0.00 0.00 0.00 56 1009.0
20260504212517 26 248 4.8 6.4 0.00 0.00 0.00 56 1009.3
20260504211517 26 158 3.2 6.4 0.00 0.00 0.00 57 1009.4
20260504210517 26 225 4.8 9.7 0.00 0.00 0.00 55 1009.6
20260504205518 26 135 3.2 6.4 0.00 0.00 0.00 56 1009.8
20260504204517 26 203 3.2 4.8 0.00 0.00 0.00 55 1010.0
20260504203517 26 158 4.8 8.0 0.00 0.00 0.00 54 1010.2
20260504202517 26 203 6.4 9.7 0.00 0.00 0.00 53 1010.5
20260504201517 26 180 4.8 9.7 0.00 0.00 0.00 52 1010.7
20260504200517 26 203 8.0 11.3 0.00 0.00 0.00 53 1011.0
20260504195518 26 203 6.4 11.3 0.00 0.00 0.00 53 1011.0
20260504194517 26 180 6.4 17.7 0.00 0.00 0.00 52 1011.1
20260504193517 26 158 6.4 9.7 0.00 0.00 0.00 53 1011.3
20260504192518 26 158 6.4 12.9 0.00 0.00 0.00 52 1011.4
20260504191517 26 203 6.4 11.3 0.00 0.00 0.00 52 1011.8
20260504190517 26 225 3.2 8.0 0.00 0.00 0.00 52 1011.7
20260504185537 26 203 6.4 9.7 0.00 0.00 0.00 51 1011.8
20260504184517 26 180 8.0 19.3 0.00 0.00 0.00 49 1011.9
20260504183517 25 158 4.8 8.0 0.00 0.00 0.00 49 1012.0
20260504182538 25 180 4.8 8.0 0.00 0.00 0.00 48 1012.5
20260504181517 25 158 4.8 11.3 0.00 0.00 0.00 49 1012.4
20260504180517 25 135 6.4 14.5 0.00 0.00 0.00 49 1012.5
20260504175517 25 203 4.8 6.4 0.00 0.00 0.00 51 1012.8
20260504174517 25 225 9.7 22.5 0.00 0.00 0.00 50 1012.9
20260504173517 24 225 8.0 16.1 0.00 0.00 0.00 51 1013.0
20260504172537 23 180 4.8 9.7 0.00 0.00 0.00 51 1013.2
20260504171517 24 158 4.8 8.0 0.00 0.00 0.00 52 1013.4
20260504170517 23 180 6.4 11.3 0.00 0.00 0.00 53 1013.8